CW2444 Weather Reports


Display with metric or nautical units.
time (UTC)temp
F
wind
direction
speed
MPH
gust
MPH
rain 1hr
in
rain 24hr
in
rain mn
in
humidity
%
barometer
mb
20181021084428 41 221 0.0 0.0 0.00 0.00 0.00 100 1018.3
20181021083450 41 237 0.0 0.0 0.00 0.00 0.00 100 1018.3
20181021082440 41 227 0.0 0.0 0.00 0.00 0.00 100 1018.4
20181021081424 41 227 0.0 0.0 0.00 0.00 0.00 100 1018.2
20181021080447 41 227 0.0 0.0 0.00 0.00 0.00 100 1018.2
20181021075436 41 229 0.0 0.0 0.00 0.00 0.00 100 1018.3
20181021074432 42 225 0.0 0.0 0.00 0.00 0.00 100 1018.3
20181021073434 43 199 0.0 0.0 0.00 0.00 0.00 100 1018.4
20181021072428 42 306 0.0 0.0 0.00 0.00 0.00 100 1018.3
20181021071428 43 242 0.0 0.0 0.00 0.00 0.00 100 1018.4
20181021070425 43 234 0.0 0.0 0.00 0.00 0.00 100 1018.3
20181021065435 43 244 0.0 0.0 0.00 0.00 0.00 100 1018.4
20181021064431 42 264 0.0 0.0 0.00 0.00 0.00 100 1018.5
20181021063435 42 250 0.0 0.0 0.00 0.00 0.00 100 1018.4
20181021062424 42 252 0.0 0.0 0.00 0.00 0.00 100 1018.4
20181021061424 41 276 0.0 0.0 0.00 0.00 0.00 100 1018.3
20181021060446 42 225 0.0 0.0 0.00 0.00 0.00 100 1018.3
20181021055441 42 240 0.0 0.0 0.00 0.00 0.00 100 1018.3
20181021054440 41 235 0.0 0.0 0.00 0.00 0.00 100 1018.3
20181021053440 41 305 0.0 0.0 0.00 0.00 0.00 100 1018.3
20181021052429 41 228 0.0 0.0 0.00 0.00 0.00 100 1018.2
20181021051429 41 231 0.0 0.0 0.00 0.00 0.00 100 1018.3
20181021050434 42 251 0.0 0.0 0.00 0.00 0.00 100 1018.3
20181021045447 42 157 0.0 0.0 0.00 0.00 0.00 97 1018.4
20181021044444 42 157 0.0 0.0 0.00 0.00 0.00 97 1018.4
20181021043444 42 157 0.0 0.0 0.00 0.00 0.00 95 1018.3
20181021042438 42 157 0.0 0.0 0.00 0.00 0.00 94 1018.2
20181021041438 43 157 0.0 0.0 0.00 0.00 0.00 94 1018.1
20181021040437 43 157 0.0 0.0 0.00 0.00 0.00 93 1018.1
20181021035447 43 157 0.0 0.0 0.00 0.00 0.00 92 1018.0
20181021034441 43 157 0.0 0.0 0.00 0.00 0.00 90 1017.9
20181021033446 44 157 0.0 0.0 0.00 0.00 0.00 89 1017.9
20181021032437 44 157 0.0 0.0 0.00 0.00 0.00 88 1018.0
20181021031435 44 157 0.0 0.0 0.00 0.00 0.00 87 1018.0
20181021030455 44 157 0.0 0.0 0.00 0.00 0.00 86 1018.0
20181021025442 44 157 0.0 0.0 0.00 0.00 0.00 84 1018.1
20181021024441 44 157 0.0 0.0 0.00 0.00 0.00 81 1018.1
20181021023443 46 150 0.0 0.0 0.00 0.00 0.00 76 1018.1
20181021022431 49 127 0.0 0.0 0.00 0.00 0.00 75 1018.1
20181021021429 49 207 0.0 0.0 0.00 0.00 0.00 75 1018.0
20181021020453 50 144 0.0 0.0 0.00 0.00 0.00 75 1018.0
20181021015442 49 66 0.0 0.0 0.00 0.00 0.00 72 1017.9
20181021014436 51 67 0.0 0.0 0.00 0.00 0.00 71 1018.0
20181021013437 52 67 0.0 0.0 0.00 0.00 0.00 68 1017.9
20181021012427 54 67 0.0 0.0 0.00 0.00 0.00 64 1017.9
20181021011429 56 65 0.0 0.0 0.00 0.00 0.00 60 1017.9
20181021010448 58 78 0.0 0.0 0.00 0.00 0.00 59 1017.8
20181021005433 59 82 0.0 0.0 0.00 0.00 0.00 58 1017.9
20181021004429 60 87 0.0 0.0 0.00 0.00 0.00 55 1017.8
20181021003450 61 82 0.0 0.0 0.00 0.00 0.00 55 1017.8
20181021002441 62 79 0.0 0.0 0.00 0.00 0.00 54 1017.9
20181021001438 63 109 0.0 0.0 0.00 0.00 0.00 51 1018.1
20181021000456 63 134 0.0 0.0 0.00 0.00 0.00 50 1018.0
20181020235446 63 114 0.0 0.0 0.00 0.00 0.00 50 1018.3
20181020234426 63 105 0.0 0.0 0.00 0.00 0.00 49 1018.3
20181020233447 64 81 0.0 0.0 0.00 0.00 0.00 50 1018.5
20181020232435 64 76 0.0 0.0 0.00 0.00 0.00 50 1018.6
20181020231433 64 105 0.0 0.0 0.00 0.00 0.00 50 1018.7
20181020230455 64 92 0.0 0.0 0.00 0.00 0.00 49 1018.9
20181020225426 64 127 0.0 0.0 0.00 0.00 0.00 50 1019.0
20181020224444 65 120 0.0 0.0 0.00 0.00 0.00 49 1019.2
20181020223443 66 127 0.0 0.0 0.00 0.00 0.00 48 1019.3
20181020222430 64 133 0.0 0.0 0.00 0.00 0.00 49 1019.5
20181020221429 64 102 0.0 0.0 0.00 0.00 0.00 49 1019.5
20181020220451 64 72 0.0 0.0 0.00 0.00 0.00 48 1019.7
20181020215439 63 152 0.0 0.0 0.00 0.00 0.00 49 1019.9
20181020214437 63 94 0.0 0.0 0.00 0.00 0.00 50 1020.1
20181020213437 64 104 0.0 0.0 0.00 0.00 0.00 50 1020.2
20181020212429 63 109 0.0 0.0 0.00 0.00 0.00 52 1020.5
20181020211428 63 97 0.0 0.0 0.00 0.00 0.00 53 1020.6
20181020210448 63 89 0.0 0.0 0.00 0.00 0.00 53 1020.8
20181020205435 62 145 0.0 0.0 0.00 0.00 0.00 54 1020.9
20181020204433 62 38 0.0 0.0 0.00 0.00 0.00 54 1021.1
20181020203437 62 133 0.0 0.0 0.00 0.00 0.00 56 1021.2
20181020202444 62 41 0.0 0.0 0.00 0.00 0.00 56 1021.5
20181020201440 61 99 0.0 0.0 0.00 0.00 0.00 56 1021.6
20181020200439 60 86 0.0 0.0 0.00 0.00 0.00 59 1021.9
20181020195447 59 40 0.0 0.0 0.00 0.00 0.00 62 1022.0
20181020194427 59 0 0.0 0.0 0.00 0.00 0.00 63 1022.2
20181020193448 58 64 0.0 0.0 0.00 0.00 0.00 62 1022.3
20181020192435 57 97 0.0 0.0 0.00 0.00 0.00 59 1022.4
20181020191431 56 7 0.0 0.0 0.00 0.00 0.00 60 1022.5
20181020190450 57 0 0.0 0.0 0.00 0.00 0.00 59 1022.7
20181020185443 56 0 0.0 0.0 0.00 0.00 0.00 68 1022.8
20181020184443 55 0 0.0 0.0 0.00 0.00 0.00 64 1022.9
20181020183443 54 0 0.0 0.0 0.00 0.00 0.00 67 1023.0
20181020182430 54 0 0.0 0.0 0.00 0.00 0.00 70 1023.1
20181020181433 53 0 0.0 0.0 0.00 0.00 0.00 75 1023.1
20181020180454 52 25 0.0 0.0 0.00 0.00 0.00 77 1023.3
20181020175440 52 39 0.0 0.0 0.00 0.00 0.00 78 1023.5
20181020174432 51 102 0.0 0.0 0.00 0.00 0.00 80 1023.6
20181020173452 51 108 0.0 0.0 0.00 0.00 0.00 80 1023.7
20181020172446 50 108 0.0 0.0 0.00 0.00 0.00 83 1023.6
20181020171442 50 111 0.0 0.0 0.00 0.00 0.00 89 1023.7
20181020170445 49 221 0.0 0.0 0.00 0.00 0.00 96 1023.7
20181020165431 49 213 0.0 0.0 0.00 0.00 0.00 100 1023.9
20181020164436 48 280 0.0 0.0 0.00 0.00 0.00 100 1023.9
20181020163457 47 215 0.0 0.0 0.00 0.00 0.00 100 1023.9
20181020162444 46 214 0.0 0.0 0.00 0.00 0.00 100 1023.8
20181020161442 45 220 0.0 0.0 0.00 0.00 0.00 100 1024.0
20181020160445 44 311 0.0 0.0 0.00 0.00 0.00 100 1024.0
20181020155440 43 217 0.0 0.0 0.00 0.00 0.00 100 1024.1
20181020154434 41 215 0.0 0.0 0.00 0.00 0.00 100 1024.3
20181020153435 39 228 0.0 0.0 0.00 0.00 0.00 100 1024.2
20181020152427 38 232 0.0 0.0 0.00 0.00 0.00 100 1024.2
20181020151430 37 222 0.0 0.0 0.00 0.00 0.00 100 1024.3
20181020150451 37 232 0.0 0.0 0.00 0.00 0.00 100 1024.2
20181020145442 36 326 0.0 0.0 0.00 0.00 0.00 100 1024.1
20181020144439 35 285 0.0 0.0 0.00 0.00 0.00 100 1024.2
20181020143438 35 260 0.0 0.0 0.00 0.00 0.00 100 1024.1
20181020142432 35 243 0.0 0.0 0.00 0.00 0.00 100 1024.0
20181020141431 35 265 0.0 0.0 0.00 0.00 0.00 100 1024.0
20181020140452 35 347 0.0 0.0 0.00 0.00 0.00 100 1024.1
20181020135442 35 234 0.0 0.0 0.00 0.00 0.00 100 1024.1
20181020134427 36 259 0.0 0.0 0.00 0.00 0.00 100 1024.0
20181020133447 35 255 0.0 0.0 0.00 0.00 0.00 100 1024.1
20181020132435 35 256 0.0 0.0 0.00 0.00 0.00 100 1024.2
20181020131434 35 252 0.0 0.0 0.00 0.00 0.00 100 1024.1
20181020130434 35 324 0.0 0.0 0.00 0.00 0.00 100 1024.3
20181020125429 36 231 0.0 0.0 0.00 0.00 0.00 100 1024.2
20181020124427 36 227 0.0 0.0 0.00 0.00 0.00 100 1024.2
20181020123444 36 227 0.0 0.0 0.00 0.00 0.00 100 1024.1
20181020122435 36 231 0.0 0.0 0.00 0.00 0.00 100 1024.1
20181020121437 36 283 0.0 0.0 0.00 0.00 0.00 100 1024.3
20181020120439 35 328 0.0 0.0 0.00 0.00 0.00 100 1024.3
20181020115429 36 236 0.0 0.0 0.00 0.00 0.00 100 1024.3
20181020114429 36 244 0.0 0.0 0.00 0.00 0.00 100 1024.4
20181020113451 37 245 0.0 0.0 0.00 0.00 0.00 100 1024.5
20181020112426 37 249 0.0 0.0 0.00 0.00 0.00 100 1024.5
20181020111426 37 232 0.0 0.0 0.00 0.00 0.00 100 1024.5
20181020110446 38 217 0.0 0.0 0.00 0.00 0.00 100 1024.6
20181020105434 38 226 0.0 0.0 0.00 0.00 0.00 100 1024.5
20181020104433 38 234 0.0 0.0 0.00 0.00 0.00 100 1024.6
20181020103440 38 321 0.0 0.0 0.00 0.00 0.00 100 1024.5
20181020102429 38 233 0.0 0.0 0.00 0.00 0.00 100 1024.5
20181020101429 38 234 0.0 0.0 0.00 0.00 0.00 100 1024.6
20181020100448 38 243 0.0 0.0 0.00 0.00 0.00 100 1024.6
20181020095443 39 225 0.0 0.0 0.00 0.00 0.00 100 1024.8
20181020094442 38 231 0.0 0.0 0.00 0.00 0.00 100 1024.7
20181020093443 39 241 0.0 0.0 0.00 0.00 0.00 100 1024.8
20181020092434 39 243 0.0 0.0 0.00 0.00 0.00 100 1024.8
20181020091432 40 281 0.0 0.0 0.00 0.00 0.00 100 1024.8
20181020090437 40 254 0.0 0.0 0.00 0.00 0.00 100 1024.7
20181020085426 41 278 0.0 0.0 0.00 0.00 0.00 100 1024.8